Weather Roundup
Issued by NWS

Home | Current Version | Previous Version | Graphics & Text | Print | Product List | Glossary Off
Versions: 1 2 3 4 5 6 7 8 9 10 11 12 13 14 15 16 17 18 19 20 21 22 23 24 25 26 27 28 29 30 31 32 33 34 35 36 37 38 39 40 41 42 43 44 45 46 47 48 49 50

252
NZUS93 KARX 071259
HRRWXR

CURRENT HOURLY OBSERVATIONS ACROSS
MUCH OF THE UPPER MISSISSIPPI VALLEY
NATIONAL WEATHER SERVICE LA CROSSE WI
700 AM CST SUN FEB 07 2016


...SOUTHEAST MINNESOTA...


CITY           SKY/WX    TMP DP  RH WIND       PRES   REMARKS
ROCHESTER      CLEAR     32  25  75 W18       29.68S WCI  20
ROCHESTER/MAYO FAIR      33  28  82 W14G21    29.68S WCI  23
WINONA         CLEAR     34  28  80 W6        29.69S WCI  29
AUSTIN         CLEAR     34  27  75 W13G20    29.71S WCI  25
ALBERT LEA     CLEAR     34  27  75 W12G18    29.71F WCI  25
DODGE CENTER   CLEAR     28  25  86 W14       29.68R WCI  17
PRESTON        CLEAR     30  25  81 SW13      29.70R WCI  20
OWATONNA       PTCLDY    30  25  80 W13       29.69S WCI  20
FARIBAULT      MOCLDY    36  28  75 W15       29.68S WCI  26
$$

...ELSEWHERE IN MINNESOTA...


CITY           SKY/WX    TMP DP  RH WIND       PRES   REMARKS
MINNEAPOLIS    CLOUDY    37  28  70 W15G21    29.63S WCI  28
INTNL FALLS    LGT SNOW  33  32  96 VRB3      29.37R FOG
DULUTH         FRZ DRZL  32  30  92 SW9       29.44F FOG     WCI  24
RED WING       PTCLDY    32  27  80 NW6       29.64S WCI  26
REDWOOD FALLS  CLEAR     35  25  66 W24G31    29.71R WCI  23
MANKATO        PTCLDY    36  25  64 W14       29.71R WCI  27
WORTHINGTON    PTCLDY    34  23  64 W24       29.79F WCI  21
FAIRMONT       CLEAR     36  25  64 W21       29.74S WCI  24
$$

...SOUTHWEST WISCONSIN...


CITY           SKY/WX    TMP DP  RH WIND       PRES   REMARKS
LA CROSSE      CLEAR     34  27  75 SW12      29.70S WCI  25
PRAIRIE DU CHI CLEAR     35  27  72 S5        29.76S WCI  31
BOSCOBEL       PTCLDY    36  30  79 SW7       29.75S WCI  30
LONE ROCK      NOT AVBL
PLATTEVILLE    CLOUDY    35  31  85 SW10      29.77R WCI  27
FORT MC COY    CLEAR     34  29  82 SW5       29.70R WCI  30
VIROQUA        FAIR      32  29  86 SW14      29.69S WCI  22
WIS DELLS      MOCLDY    35  28  78 SW9       29.69F WCI  27
$$

...ELSEWHERE IN WISCONSIN...


CITY           SKY/WX    TMP DP  RH WIND       PRES   REMARKS
MILWAUKEE      CLOUDY    38  28  67 SW21G26   29.77F WCI  28
MADISON        CLOUDY    37  29  72 SW8G17    29.74F WCI  31
GREEN BAY      CLOUDY    36  30  79 S12       29.68F WCI  28
EAU CLAIRE     NOT AVBL
BLACK RVR FLS  FAIR      32  28  84 S5        29.66S WCI  27
MEDFORD        CLOUDY    30  29  96 S9        29.60F WCI  21
WAUSAU         FLURRIES  32  28  85 S8        29.61F WCI  25
WIS RAPIDS     CLOUDY    32  26  78 SW7       29.67F WCI  26
MARSHFIELD     PTCLDY    30  25  81 SW9       29.62F WCI  22
RICE LAKE      MOCLDY    32  28  85 S8        29.59F WCI  25
$$

...NORTHEAST IOWA...


CITY           SKY/WX    TMP DP  RH WIND       PRES   REMARKS
WATERLOO       CLOUDY    32  26  78 W13       29.79S WCI  22
DUBUQUE        CLOUDY    34  28  79 SW15      29.76F WCI  24
DECORAH        CLEAR     32  28  86 SW8       29.72S WCI  25
MASON CITY     CLEAR     31  25  78 W20       29.76S WCI  19
CHARLES CITY   CLEAR     30  30 100 W12       29.76R WCI  21
OELWEIN        CLOUDY    32  28  86 SW12      29.77S WCI  23
$$

...ELSEWHERE IN IOWA...


CITY           SKY/WX    TMP DP  RH WIND       PRES   REMARKS
DES MOINES     MOCLDY    37  27  67 NW14      29.87S WCI  28
IOWA CITY      CLOUDY    37  29  72 SW9       29.85F WCI  30
FORT DODGE     CLEAR     32  25  74 W7        29.83S WCI  26
MARSHALLTOWN   PTCLDY    32  26  78 W14       29.82R WCI  22
CEDAR RAPIDS   CLOUDY    35  30  82 SW14      29.80F WCI  26
$$

...NORTHERN ILLINOIS...


CITY           SKY/WX    TMP DP  RH WIND       PRES   REMARKS
CHICAGO-OHARE  MOCLDY    39  29  67 SW15      29.85F WCI  31
CHICAGO-MIDWAY MOCLDY    39  28  64 S15       29.87F WCI  31
MOLINE         CLOUDY    37  28  70 SW13      29.84R WCI  29
ROCKFORD       CLOUDY    37  29  72 S12       29.83F WCI  29
PEORIA         CLOUDY    36  28  73 S10       29.91F WCI  28
$$

NOTE: "FAIR" INDICATES FEW OR NO CLOUDS BELOW 12,000 FEET WITH NO
SIGNIFICANT WEATHER AND/OR OBSTRUCTIONS TO VISIBILITY. WIND
SPEEDS ARE IN MILES-PER-HOUR.




USA.gov is the U.S. government's official web portal to all federal, state and local government web resources and services.